• In Deutschland
  • Länderverzeichnis
  • Für 7 Tage
  • Wassertemperatur
  • Satellitenkarten
  • Wetterkarte
  • Widgets
  • user-avatar
    Anmelden

    Stündliche Wetter Obertshausen

    Heute, 21 September, Freitag

    Zeit Temperatur Niederschläge Wind Luftdruck Luftfeuchtigkeit
    00:00 +20°C° 0 mm 2 m/S 748 mmHg 72%
    01:00 +20°C° 0 mm 2 m/S 748 mmHg 74%
    02:00 +20°C° 0 mm 2 m/S 748 mmHg 74%
    03:00 +20°C° 0 mm 2 m/S 747 mmHg 75%
    04:00 +19°C° 0 mm 2 m/S 747 mmHg 76%
    05:00 +20°C° 0 mm 3 m/S 747 mmHg 75%
    06:00 +20°C° 0 mm 3 m/S 746 mmHg 73%
    07:00 +20°C° 0 mm 3 m/S 746 mmHg 69%
    08:00 +21°C° 0.1 mm 4 m/S 746 mmHg 65%
    09:00 +22°C° 0.1 mm 5 m/S 745 mmHg 61%
    10:00 +24°C° 0.1 mm 6 m/S 745 mmHg 58%
    11:00 +24°C° 0 mm 6 m/S 745 mmHg 56%
    12:00 +24°C° 0 mm 7 m/S 746 mmHg 55%
    13:00 +24°C° 0 mm 7 m/S 746 mmHg 53%
    14:00 +22°C° 0.6 mm 7 m/S 746 mmHg 60%
    15:00 +20°C° 0.6 mm 6 m/S 747 mmHg 68%
    16:00 +17°C° 0.6 mm 6 m/S 747 mmHg 75%
    17:00 +16°C° 0.1 mm 5 m/S 748 mmHg 70%
    18:00 +16°C° 0.1 mm 5 m/S 749 mmHg 66%
    19:00 +15°C° 0.1 mm 4 m/S 749 mmHg 61%
    20:00 +14°C° 0 mm 4 m/S 750 mmHg 59%
    21:00 +14°C° 0 mm 4 m/S 751 mmHg 57%
    22:00 +13°C° 0 mm 4 m/S 752 mmHg 55%
    23:00 +13°C° 0 mm 4 m/S 753 mmHg 57%

    Morgen, 22 September, Samstag

    Zeit Temperatur Niederschläge Wind Luftdruck Luftfeuchtigkeit
    00:00 +12°C° 0 mm 4 m/S 753 mmHg 58%
    01:00 +11°C° 0 mm 4 m/S 753 mmHg 60%
    02:00 +11°C° 0 mm 4 m/S 754 mmHg 63%
    03:00 +11°C° 0 mm 3 m/S 754 mmHg 65%
    04:00 +11°C° 0 mm 3 m/S 754 mmHg 68%
    05:00 +11°C° 0 mm 3 m/S 754 mmHg 69%
    06:00 +11°C° 0 mm 3 m/S 755 mmHg 70%
    07:00 +11°C° 0 mm 3 m/S 755 mmHg 71%
    08:00 +12°C° 0 mm 3 m/S 755 mmHg 67%
    09:00 +13°C° 0 mm 4 m/S 755 mmHg 63%
    10:00 +14°C° 0 mm 4 m/S 755 mmHg 59%
    11:00 +15°C° 0 mm 4 m/S 755 mmHg 55%
    12:00 +17°C° 0 mm 4 m/S 755 mmHg 50%
    13:00 +19°C° 0 mm 4 m/S 755 mmHg 46%
    14:00 +18°C° 0 mm 4 m/S 754 mmHg 46%
    15:00 +18°C° 0 mm 4 m/S 754 mmHg 47%
    16:00 +18°C° 0 mm 4 m/S 754 mmHg 47%
    17:00 +17°C° 0.1 mm 4 m/S 754 mmHg 51%
    18:00 +16°C° 0.1 mm 3 m/S 754 mmHg 56%
    19:00 +15°C° 0.1 mm 2 m/S 754 mmHg 60%
    20:00 +15°C° 0 mm 2 m/S 755 mmHg 62%
    21:00 +14°C° 0 mm 2 m/S 755 mmHg 65%
    22:00 +14°C° 0 mm 2 m/S 755 mmHg 67%
    23:00 +13°C° 0.1 mm 1 m/S 755 mmHg 69%

    übermorgen, 23 September, Sonntag

    Zeit Temperatur Niederschläge Wind Luftdruck Luftfeuchtigkeit
    00:00 +13°C° 0.1 mm 1 m/S 755 mmHg 71%
    01:00 +13°C° 0.1 mm 1 m/S 755 mmHg 72%
    02:00 +13°C° 0.6 mm 1 m/S 754 mmHg 76%
    03:00 +13°C° 0.6 mm 1 m/S 754 mmHg 80%
    04:00 +13°C° 0.6 mm 1 m/S 754 mmHg 84%
    05:00 +12°C° 0.4 mm 1 m/S 753 mmHg 85%
    06:00 +12°C° 0.4 mm 2 m/S 753 mmHg 86%
    07:00 +12°C° 0.4 mm 2 m/S 752 mmHg 87%
    08:00 +13°C° 0.4 mm 2 m/S 752 mmHg 87%
    09:00 +13°C° 0.4 mm 2 m/S 751 mmHg 87%
    10:00 +13°C° 0.4 mm 2 m/S 751 mmHg 87%
    11:00 +14°C° 1.2 mm 2 m/S 750 mmHg 89%
    12:00 +15°C° 1.2 mm 2 m/S 750 mmHg 91%
    13:00 +16°C° 1.2 mm 2 m/S 749 mmHg 92%
    14:00 +17°C° 0.7 mm 3 m/S 748 mmHg 91%
    15:00 +18°C° 0.7 mm 4 m/S 747 mmHg 90%
    16:00 +19°C° 0.7 mm 5 m/S 747 mmHg 88%
    17:00 +20°C° 1.1 mm 6 m/S 745 mmHg 88%
    18:00 +20°C° 1.1 mm 7 m/S 744 mmHg 88%
    19:00 +21°C° 1.1 mm 8 m/S 743 mmHg 87%
    20:00 +19°C° 2.4 mm 9 m/S 743 mmHg 86%
    21:00 +18°C° 2.4 mm 9 m/S 744 mmHg 84%
    22:00 +18°C° 2.4 mm 9 m/S 744 mmHg 82%
    23:00 +15°C° 0.4 mm 8 m/S 746 mmHg 81%

    24 September, Montag

    Zeit Temperatur Niederschläge Wind Luftdruck Luftfeuchtigkeit
    00:00 +11°C° 0.4 mm 7 m/S 748 mmHg 80%
    01:00 +9°C° 0.4 mm 6 m/S 751 mmHg 79%
    02:00 +8°C° 0 mm 5 m/S 753 mmHg 80%
    03:00 +8°C° 0 mm 4 m/S 754 mmHg 81%
    04:00 +8°C° 0 mm 3 m/S 756 mmHg 81%
    05:00 +8°C° 0 mm 3 m/S 757 mmHg 82%
    06:00 +8°C° 0 mm 3 m/S 759 mmHg 83%
    07:00 +8°C° 0 mm 2 m/S 760 mmHg 84%
    08:00 +10°C° 0 mm 3 m/S 760 mmHg 75%
    09:00 +11°C° 0 mm 3 m/S 761 mmHg 66%
    10:00 +13°C° 0 mm 3 m/S 761 mmHg 57%
    11:00 +14°C° 0 mm 3 m/S 761 mmHg 54%
    12:00 +14°C° 0 mm 4 m/S 762 mmHg 50%
    13:00 +15°C° 0 mm 4 m/S 762 mmHg 46%
    14:00 +15°C° 0 mm 4 m/S 762 mmHg 46%
    15:00 +15°C° 0 mm 4 m/S 762 mmHg 46%
    16:00 +15°C° 0 mm 4 m/S 762 mmHg 46%
    17:00 +14°C° 0 mm 4 m/S 763 mmHg 51%
    18:00 +12°C° 0 mm 3 m/S 763 mmHg 56%
    19:00 +12°C° 0 mm 2 m/S 764 mmHg 61%
    20:00 +10°C° 0 mm 2 m/S 764 mmHg 63%
    21:00 +9°C° 0 mm 2 m/S 765 mmHg 66%
    22:00 +8°C° 0 mm 2 m/S 766 mmHg 68%
    23:00 +8°C° 0 mm 2 m/S 766 mmHg 70%

    25 September, Dienstag

    Zeit Temperatur Niederschläge Wind Luftdruck Luftfeuchtigkeit
    00:00 +7°C° 0 mm 2 m/S 766 mmHg 72%
    01:00 +7°C° 0 mm 2 m/S 766 mmHg 75%
    02:00 +6°C° 0 mm 2 m/S 767 mmHg 77%
    03:00 +7°C° 0 mm 1 m/S 767 mmHg 78%
    04:00 +7°C° 0 mm 1 m/S 767 mmHg 80%
    05:00 +7°C° 0 mm 1 m/S 767 mmHg 80%
    06:00 +7°C° 0 mm 1 m/S 767 mmHg 80%
    07:00 +7°C° 0 mm 1 m/S 768 mmHg 80%
    08:00 +8°C° 0 mm 2 m/S 768 mmHg 71%
    09:00 +10°C° 0 mm 2 m/S 768 mmHg 62%
    10:00 +12°C° 0 mm 3 m/S 768 mmHg 53%
    11:00 +13°C° 0 mm 3 m/S 768 mmHg 48%
    12:00 +14°C° 0 mm 3 m/S 767 mmHg 43%
    13:00 +16°C° 0 mm 3 m/S 767 mmHg 38%
    14:00 +16°C° 0 mm 3 m/S 766 mmHg 38%
    15:00 +16°C° 0 mm 3 m/S 766 mmHg 38%
    16:00 +16°C° 0 mm 2 m/S 766 mmHg 38%
    17:00 +15°C° 0 mm 2 m/S 765 mmHg 42%
    18:00 +13°C° 0 mm 2 m/S 765 mmHg 47%
    19:00 +10°C° 0 mm 2 m/S 765 mmHg 52%
    20:00 +10°C° 0 mm 2 m/S 765 mmHg 53%
    21:00 +9°C° 0 mm 2 m/S 765 mmHg 55%
    22:00 +9°C° 0 mm 1 m/S 765 mmHg 56%
    23:00 +9°C° 0 mm 1 m/S 765 mmHg 57%

    26 September, Mittwoch

    Zeit Temperatur Niederschläge Wind Luftdruck Luftfeuchtigkeit
    00:00 +9°C° 0 mm 1 m/S 764 mmHg 58%
    01:00 +8°C° 0 mm 1 m/S 764 mmHg 59%
    02:00 +8°C° 0 mm 1 m/S 764 mmHg 60%
    03:00 +7°C° 0 mm 1 m/S 764 mmHg 61%
    04:00 +7°C° 0 mm 1 m/S 763 mmHg 63%
    05:00 +7°C° 0 mm 1 m/S 763 mmHg 63%
    06:00 +7°C° 0 mm 1 m/S 763 mmHg 64%
    07:00 +7°C° 0 mm 1 m/S 763 mmHg 65%
    08:00 +9°C° 0 mm 1 m/S 763 mmHg 58%
    09:00 +11°C° 0 mm 1 m/S 763 mmHg 51%
    10:00 +14°C° 0 mm 1 m/S 763 mmHg 44%
    11:00 +15°C° 0 mm 1 m/S 762 mmHg 40%
    12:00 +18°C° 0 mm 1 m/S 762 mmHg 36%
    13:00 +20°C° 0 mm 1 m/S 762 mmHg 32%
    14:00 +20°C° 0 mm 1 m/S 761 mmHg 33%
    15:00 +20°C° 0 mm 1 m/S 761 mmHg 34%
    16:00 +20°C° 0 mm 2 m/S 760 mmHg 35%
    17:00 +19°C° 0 mm 1 m/S 760 mmHg 41%
    18:00 +16°C° 0 mm 1 m/S 760 mmHg 46%
    19:00 +14°C° 0 mm 1 m/S 760 mmHg 52%
    20:00 +13°C° 0 mm 1 m/S 760 mmHg 54%
    21:00 +13°C° 0 mm 1 m/S 760 mmHg 56%
    22:00 +12°C° 0 mm 1 m/S 760 mmHg 58%
    23:00 +12°C° 0 mm 1 m/S 759 mmHg 60%
    Mehr zeigen